Weather History for KISQ - November, 2011

Change the Weather History Date:

Tuesday, November 22, 2011

  Actual Average (KESC) Record (KESC)
Temperature  
Mean Temperature 34 °F -  
Max Temperature 39 °F 37 °F 55 °F (1990)
Min Temperature 28 °F 26 °F 0 °F (2008)
Degree Days  
Heating Degree Days 30    
Moisture  
Dew Point 28 °F    
Average Humidity 80    
Maximum Humidity 93    
Minimum Humidity 70    
Precipitation  
Precipitation 0.00 in - - ()
Sea Level Pressure  
Sea Level Pressure 30.20 in    
Wind  
Wind Speed 5 mph (East)    
Max Wind Speed 14 mph    
Max Gust Speed 18 mph    
Visibility 10 miles    
Events      
Averages and records for this station are not official NWS values.
T = Trace of Precipitation, MM = Missing Value Source: NWS Daily Summary

Daily Weather History Graph

Daily Weather History Graph

Search for Another Location

Airport or City:

Trip Planner

Search our weather history database for the weather conditions in past years. The results will help you decide how hot, cold, wet, or windy it might be!

Date:

Astronomy

Nov. 22, 2011 Rise Set
Actual Time 7:54 AM EST 5:06 PM EST
Civil Twilight 7:21 AM EST 5:39 PM EST
Nautical Twilight 6:44 AM EST 6:16 PM EST
Astronomical Twilight 6:08 AM EST 6:52 PM EST
Moon 4:37 AM EST (11/22) 3:10 PM EST (11/22)
Length of Visible Light 10h 18m
Length of Day
9h 12m
Waning Crescent, 9% of the Moon is Illuminated
Nov 22
Waning Crescent
Nov 25
New
Dec 2
First Quarter
Dec 10
Full
Dec 17
Last Quarter

Hourly Weather History & Observations

Time (EST) Temp. Windchill Dew Point Humidity Pressure Visibility Wind Dir Wind Speed Gust Speed Precip Events Conditions
12:14 AM 30.2 °F 26.7 °F 24.8 °F 80% 30.32 in 10.0 mi North 3.5 mph - N/A   Overcast
12:35 AM 30.2 °F 26.7 °F 24.8 °F 80% 30.33 in 10.0 mi ENE 3.5 mph - N/A   Overcast
12:54 AM 30.2 °F 26.7 °F 24.8 °F 80% 30.33 in 10.0 mi ENE 3.5 mph - N/A   Overcast
1:14 AM 30.2 °F 25.4 °F 24.8 °F 80% 30.33 in 10.0 mi ENE 4.6 mph - N/A   Overcast
1:35 AM 30.2 °F 26.7 °F 24.8 °F 80% 30.32 in 10.0 mi NNE 3.5 mph - N/A   Overcast
1:54 AM 30.2 °F 26.7 °F 24.8 °F 80% 30.32 in 10.0 mi NE 3.5 mph - N/A   Overcast
2:15 AM 30.2 °F 26.7 °F 24.8 °F 80% 30.33 in 10.0 mi NE 3.5 mph - N/A   Overcast
2:35 AM 30.2 °F - 24.8 °F 80% 30.34 in 10.0 mi Calm Calm - N/A   Overcast
2:54 AM 30.2 °F - 24.8 °F 80% 30.34 in 10.0 mi Calm Calm - N/A   Overcast
3:15 AM 30.2 °F - 24.8 °F 80% 30.33 in 10.0 mi Calm Calm - N/A   Overcast
3:34 AM 30.2 °F - 26.6 °F 86% 30.33 in 10.0 mi Calm Calm - N/A   Overcast
3:54 AM 30.2 °F - 24.8 °F 80% 30.32 in 10.0 mi Calm Calm - N/A   Overcast
4:15 AM 30.2 °F 26.7 °F 26.6 °F 86% 30.30 in 10.0 mi NE 3.5 mph - N/A   Overcast
4:34 AM 30.2 °F 25.4 °F 26.6 °F 86% 30.29 in 10.0 mi NE 4.6 mph - N/A   Overcast
4:54 AM 30.2 °F 25.4 °F 26.6 °F 86% 30.29 in 10.0 mi NE 4.6 mph - N/A   Overcast
5:15 AM 30.2 °F 25.4 °F 26.6 °F 86% 30.29 in 10.0 mi NE 4.6 mph - N/A   Overcast
5:34 AM 30.2 °F 25.4 °F 26.6 °F 86% 30.29 in 10.0 mi NE 4.6 mph - N/A   Overcast
5:54 AM 30.2 °F 25.4 °F 26.6 °F 86% 30.29 in 10.0 mi NE 4.6 mph - N/A   Overcast
6:14 AM 30.2 °F 25.4 °F 26.6 °F 86% 30.27 in 10.0 mi NE 4.6 mph - N/A   Overcast
6:34 AM 30.2 °F 25.4 °F 26.6 °F 86% 30.27 in 10.0 mi ENE 4.6 mph - N/A   Overcast
6:54 AM 30.2 °F 25.4 °F 26.6 °F 86% 30.25 in 10.0 mi NE 4.6 mph - N/A   Overcast
7:14 AM 30.2 °F - 28.4 °F 93% 30.24 in 10.0 mi Calm Calm - N/A   Overcast
7:35 AM 30.2 °F - 28.4 °F 93% 30.24 in 10.0 mi Calm Calm - N/A   Overcast
7:54 AM 35.6 °F 28.6 °F 28.4 °F 75% 30.25 in 10.0 mi ESE 9.2 mph - N/A   Overcast
8:14 AM 33.8 °F 27.0 °F 26.6 °F 75% 30.25 in 10.0 mi ESE 8.1 mph - N/A   Mostly Cloudy
8:35 AM 33.8 °F 27.0 °F 28.4 °F 81% 30.26 in 10.0 mi SE 8.1 mph - N/A   Scattered Clouds
8:54 AM 35.6 °F 28.6 °F 28.4 °F 75% 30.26 in 10.0 mi SE 9.2 mph - N/A   Scattered Clouds
9:15 AM 35.6 °F 29.2 °F 30.2 °F 81% 30.25 in 10.0 mi SE 8.1 mph - N/A   Mostly Cloudy
9:34 AM 35.6 °F 27.5 °F 30.2 °F 81% 30.25 in 10.0 mi SSE 11.5 mph - N/A   Overcast
9:54 AM 37.4 °F 28.9 °F 30.2 °F 75% 30.25 in 10.0 mi SE 13.8 mph - N/A   Mostly Cloudy
10:15 AM 37.4 °F 29.8 °F 30.2 °F 75% 30.24 in 10.0 mi SSE 11.5 mph 18.4 mph N/A   Overcast
10:34 AM 37.4 °F 29.3 °F 30.2 °F 75% 30.23 in 10.0 mi SSE 12.7 mph 18.4 mph N/A   Overcast
10:54 AM 37.4 °F 30.3 °F 30.2 °F 75% 30.22 in 10.0 mi SE 10.4 mph 16.1 mph N/A   Overcast
11:14 AM 37.4 °F 29.3 °F 30.2 °F 75% 30.22 in 10.0 mi SE 12.7 mph - N/A   Overcast
11:34 AM 37.4 °F 29.3 °F 32.0 °F 81% 30.20 in 10.0 mi SE 12.7 mph 18.4 mph N/A   Overcast
11:55 AM 37.4 °F 30.8 °F 32.0 °F 81% 30.18 in 10.0 mi SE 9.2 mph - N/A   Overcast
12:34 PM 39.2 °F 32.0 °F 30.2 °F 70% 30.16 in 10.0 mi SE 11.5 mph - N/A   Overcast
12:55 PM 39.2 °F 32.0 °F 32.0 °F 75% 30.16 in 10.0 mi SE 11.5 mph 16.1 mph N/A   Overcast
1:34 PM 39.2 °F 32.0 °F 32.0 °F 75% 30.15 in 10.0 mi ESE 11.5 mph - N/A   Overcast
1:55 PM 39.2 °F 33.6 °F 32.0 °F 75% 30.14 in 10.0 mi SE 8.1 mph - N/A   Overcast
2:34 PM 39.2 °F 33.0 °F 30.2 °F 70% 30.12 in 10.0 mi SE 9.2 mph - N/A   Overcast
2:55 PM 39.2 °F 33.6 °F 32.0 °F 75% 30.11 in 10.0 mi ESE 8.1 mph - N/A   Overcast
3:14 PM 39.2 °F 34.2 °F 32.0 °F 75% 30.10 in 10.0 mi ESE 6.9 mph - N/A   Overcast
3:35 PM 39.2 °F 33.0 °F 30.2 °F 70% 30.08 in 10.0 mi ESE 9.2 mph - N/A   Overcast
3:54 PM 37.4 °F 33.8 °F 30.2 °F 75% 30.08 in 10.0 mi East 4.6 mph - N/A   Overcast
4:14 PM 37.4 °F 33.8 °F 30.2 °F 75% 30.08 in 10.0 mi East 4.6 mph - N/A   Overcast
4:35 PM 37.4 °F 34.9 °F 30.2 °F 75% 30.08 in 10.0 mi East 3.5 mph - N/A   Mostly Cloudy
4:54 PM 35.6 °F 32.8 °F 30.2 °F 81% 30.06 in 10.0 mi East 3.5 mph - N/A   Scattered Clouds
5:14 PM 35.6 °F 32.8 °F 30.2 °F 81% 30.06 in 10.0 mi East 3.5 mph - N/A   Mostly Cloudy
5:35 PM 35.6 °F - 30.2 °F 81% 30.06 in 10.0 mi Calm Calm - N/A   Overcast
5:54 PM 33.8 °F 29.6 °F 30.2 °F 87% 30.07 in 10.0 mi NNE 4.6 mph - N/A   Overcast
6:35 PM 35.6 °F 32.8 °F 30.2 °F 81% 30.06 in 10.0 mi ENE 3.5 mph - N/A   Overcast
6:54 PM 33.8 °F - 30.2 °F 87% 30.07 in 10.0 mi Calm Calm - N/A   Overcast
7:14 PM 33.8 °F 30.8 °F 30.2 °F 87% 30.06 in 10.0 mi ENE 3.5 mph - N/A   Overcast
7:34 PM 33.8 °F 29.6 °F 28.4 °F 81% 30.05 in 10.0 mi East 4.6 mph - N/A   Overcast
7:54 PM 33.8 °F 30.8 °F 30.2 °F 87% 30.04 in 10.0 mi East 3.5 mph - N/A   Overcast
8:15 PM 33.8 °F - 28.4 °F 81% 30.04 in 10.0 mi Calm Calm - N/A   Mostly Cloudy
8:34 PM 33.8 °F - 28.4 °F 81% 30.04 in 10.0 mi Calm Calm - N/A   Scattered Clouds
9:15 PM 35.6 °F 30.7 °F 30.2 °F 81% 30.03 in 10.0 mi ESE 5.8 mph - N/A   Clear
10:15 PM 28.4 °F - 26.6 °F 93% 30.04 in 10.0 mi Calm Calm - N/A   Clear
10:54 PM 26.6 °F - 24.8 °F 93% 30.02 in 7.0 mi Calm Calm - N/A   Clear
11:14 PM 28.4 °F - 24.8 °F 86% 30.02 in 4.0 mi Calm Calm - N/A   Clear
11:34 PM 26.6 °F - 24.8 °F 93% 30.02 in 4.0 mi Calm Calm - N/A   Clear
11:55 PM 24.8 °F - 21.2 °F 86% 30.02 in 7.0 mi Calm Calm - N/A   Clear